カタログに戻る

ONEWEB-0490

運用中通信PO
NORAD 54113·PAYLOAD·🇬🇧 United Kingdom

打ち上げ Oct 22, 2022 から Satish Dhawan Space Centre

Loading…

次のパス (今後24時間)

TLE

最新Source: CelesTrak SupGP

元期: Sep 14, 2026, 21:49 UTC

1 54113C 22138A   26257.90917083  .00001904  00000+0  47627-2 0  2577
2 54113  87.9113 287.0961 0001978  87.9487 307.9174 13.19722773    10

AllMySatでONEWEB-0490をリアルタイム追跡

Download on the App Store